Regional Weather Roundup
Issued by NWS

Home | Current Version | Previous Version | Graphics & Text | Print | Product List | Glossary On
Versions: 1 2 3 4 5 6 7 8 9 10 11 12 13 14 15 16 17 18 19 20 21 22 23 24 25 26 27 28 29 30 31 32 33 34 35 36 37 38 39 40 41 42 43 44 45 46 47 48 49 50
000
ASUS43 KLSX 041810
RWRMO

WEATHER SUMMARY FOR MISSOURI
NATIONAL WEATHER SERVICE SPRINGFIELD MO
100 PM CDT TUE AUG 04 2015

NOTE: "FAIR" INDICATES FEW OR NO CLOUDS BELOW 12,000 FEET WITH NO
       SIGNIFICANT WEATHER AND/OR OBSTRUCTIONS TO VISIBILITY.
       CURRENT SKY AND/OR WEATHER CONDITIONS ARE NOT AVAILABLE FOR
       CHILLICOTHE AND FARMINGTON.

MOZ001>031-035>038-043-044-053-054-041900-
...NORTHERN AND WESTERN MISSOURI...

CITY           SKY/WX    TMP DP  RH WIND       PRES   REMARKS
KANSAS CTY INT CLOUDY    82  72  71 E14       30.00F
6HR MIN TEMP:  72; 6HR MAX TEMP:  85;

KANSAS C DTWN  CLOUDY    85  73  67 E14       29.98F HX  91
6HR MIN TEMP:  74; 6HR MAX TEMP:  88;

LEE`S SUMMIT   CLOUDY    84  71  65 NE17      30.01S
6HR MIN TEMP:  72; 6HR MAX TEMP:  88;

ST JOSEPH      PTSUNNY   80  69  69 E9        30.00F
6HR MIN TEMP:  70; 6HR MAX TEMP:  80;

CHILLICOTHE      N/A     79  68  69 VRB5      30.02F
6HR MIN TEMP:  69; 6HR MAX TEMP:  80;

KIRKSVILLE     CLOUDY    69  67  93 E7        30.04F
6HR MIN TEMP:  66; 6HR MAX TEMP:  70; 6HR PCP:  0.33;


$$
MOZ066>068-077>081-088>096-101>105-041900-
...SOUTHWEST MISSOURI...

CITY           SKY/WX    TMP DP  RH WIND       PRES   REMARKS
SPRINGFIELD    CLOUDY    87  67  51 W9        30.01R HX  90
6HR MIN TEMP:  73; 6HR MAX TEMP:  88;

JOPLIN         CLOUDY    85  68  56 SW9       30.01S
6HR MIN TEMP:  74; 6HR MAX TEMP:  85;


$$
MOZ032>034-039>042-045>050-055>058-069>072-041900-
...CENTRAL MISSOURI...

CITY           SKY/WX    TMP DP  RH WIND       PRES   REMARKS
COLUMBIA       MOSUNNY   87  70  56 W9        30.01S HX  92
6HR MIN TEMP:  69; 6HR MAX TEMP:  88;

JEFFERSON CITY MOSUNNY   88  70  55 VRB5      29.98F HX  93
6HR MIN TEMP:  71; 6HR MAX TEMP:  88;

ROLLA          PTSUNNY   89  69  51 SW9       30.00S HX  93
6HR MIN TEMP:  69; 6HR MAX TEMP:  90;

SEDALIA        MOSUNNY   89  68  49 N9        30.01S HX  93
6HR MIN TEMP:  70; 6HR MAX TEMP:  90;

WHITEMAN AFB   PTSUNNY   87  68  51 N9        29.99S HX  90
WARRENSBURG    PTSUNNY   86  68  54 NW6       30.00S
OSAGE BEACH    CLOUDY    86  68  54 CALM      30.01R

$$
MOZ051-052-059>065-041900-
...EAST CENTRAL MISSOURI...

CITY           SKY/WX    TMP DP  RH WIND       PRES   REMARKS
ST LOUIS INTL  PTSUNNY   90  67  46 CALM      29.99S HX  93
6HR MIN TEMP:  75; 6HR MAX TEMP:  90;

SPIRIT OF STL  SUNNY     88  71  57 VRB6      29.97F HX  94
6HR MIN TEMP:  72; 6HR MAX TEMP:  88;

ST CHARLES     MOSUNNY   86  69  56 E6        29.98S HX  90
6HR MIN TEMP:  72; 6HR MAX TEMP:  87;


$$
MOZ072>076-082>087-097>100-106>115-041900-
...SOUTH CENTRAL AND SOUTHEAST MISSOURI...

CITY           SKY/WX    TMP DP  RH WIND       PRES   REMARKS
CAPE GIRARDEAU PTSUNNY   92  75  57 VRB5      29.98S HX 103
6HR MIN TEMP:  74; 6HR MAX TEMP:  92;

FARMINGTON     PTSUNNY   88  70  55 SW12      30.04S HX  92
6HR MIN TEMP:  72; 6HR MAX TEMP:  90;

POPLAR BLUFF   PTSUNNY   90  73  57 S5        29.98R HX  98
6HR MIN TEMP:  75; 6HR MAX TEMP:  91;

WEST PLAINS    CLOUDY    89  67  47 SW10      30.04S HX  92
6HR MIN TEMP:  70; 6HR MAX TEMP:  90;


$$


USA.gov is the U.S. government's official web portal to all federal, state and local government web resources and services.